Location: Kielce
(50.8833°N, 20.6167°E)
Time: 20:39:14
(UTC+02:00)

SR - Pass Details

Date: 25 April 2021
Orbit: 573 x 882 km, 66.7° (Epoch: 08 May)

Event Time Altitude Azimuth Distance (km) Brightness Sun altitude
Rises 06:08:31 0° 183° (S) 3,328 ? 6.1°
Reaches altitude 10° 06:11:06 10° 173° (S) 2,439 ? 6.5°
Maximum altitude 06:16:05 32° 112° (ESE) 1,433 ? 7.2°
Drops below altitude 10° 06:21:16 10° 51° (NE) 2,544 ? 8.0°
Sets 06:24:01 0° 42° (NE) 3,492 ? 8.5°
